Back to catalog

CHUTIAN XINGZUO 2-01 XING

AliveCommunicationsSSO
NORAD 66409·PAYLOAD·🇨🇳 China
This satellite name has not been confirmed by official sources yet.

Launched Nov 9, 2025 from Jiuquan Satellite Launch Center

Loading…

Next Passes (next 24 hours)

TLE

FreshSource: Space-Track

Epoch: Sep 14, 2026, 10:44 UTC

1 66409U 25256A   26257.44745272  .00000333  00000-0  96554-4 0  9994
2 66409  98.2433 321.7960 0014717  60.6549 299.6113 14.50275432 44837

Track CHUTIAN XINGZUO 2-01 XING in real time with AllMySat

Download on the App Store